Weather History for Cody, WY

Change the Weather History Date:

Friday, March 1, 2013

  Actual Average Record
Temperature  
Mean Temperature 45 °F -  
Max Temperature 55 °F 44 °F 65 °F (1923)
Min Temperature 35 °F 22 °F -17 °F (1922)
Degree Days  
Heating Degree Days 20    
Moisture  
Dew Point 23 °F    
Average Humidity 43    
Maximum Humidity 52    
Minimum Humidity 31    
Precipitation  
Precipitation 0.00 in - - ()
Sea Level Pressure  
Sea Level Pressure 30.23 in    
Wind  
Wind Speed 14 mph (West)    
Max Wind Speed 25 mph    
Max Gust Speed 39 mph    
Visibility 10 miles    
Events      
Averages and records for this station are not official NWS values.
T = Trace of Precipitation, MM = Missing Value Source: NWS Daily Summary

Daily Weather History Graph

Daily Weather History Graph

Search for Another Location

Airport:

Trip Planner

Search our weather history database for the weather conditions in past years. The results will help you decide how hot, cold, wet, or windy it might be!

Date:

Astronomy

Mar. 01, 2013 Rise Set
Actual Time 6:52 AM MST 6:04 PM MST
Civil Twilight 6:23 AM MST 6:33 PM MST
Nautical Twilight 5:50 AM MST 7:07 PM MST
Astronomical Twilight 5:16 AM MST 7:41 PM MST
Moon 10:54 PM MST (3/1) 8:29 AM MST (3/1)
Length of Visible Light 12h 09m
Length of Day
11h 11m
Waning Gibbous, 83% of the Moon is Illuminated
Mar 1
Waning Gibbous
Mar 4
Last Quarter
Mar 11
New
Mar 19
First Quarter
Mar 27
Full

Hourly Weather History & Observations

Time (MST) Temp. Windchill Dew Point Humidity Pressure Visibility Wind Dir Wind Speed Gust Speed Precip Events Conditions
12:15 AM 37.4 °F 26.9 °F 15.8 °F 41% 30.20 in 10.0 mi WSW 20.7 mph 27.6 mph N/A   Overcast
12:35 AM 37.4 °F 27.2 °F 17.6 °F 45% 30.22 in 10.0 mi West 19.6 mph 25.3 mph N/A   Overcast
12:55 AM 37.4 °F 27.8 °F 17.6 °F 45% 30.22 in 10.0 mi West 17.3 mph 26.5 mph N/A   Overcast
1:15 AM 37.4 °F 29.3 °F 17.6 °F 45% 30.23 in 10.0 mi West 12.7 mph 18.4 mph N/A   Overcast
1:35 AM 37.4 °F 30.8 °F 15.8 °F 41% 30.22 in 10.0 mi WSW 9.2 mph - N/A   Overcast
3:15 AM 35.6 °F 27.5 °F 17.6 °F 48% 30.21 in 10.0 mi WNW 11.5 mph 16.1 mph N/A   Scattered Clouds
3:35 AM 35.6 °F 29.9 °F 17.6 °F 48% 30.21 in 10.0 mi WNW 6.9 mph - N/A   Mostly Cloudy
3:56 AM 37.4 °F 30.8 °F 19.4 °F 48% 30.23 in 10.0 mi WNW 9.2 mph - N/A   Mostly Cloudy
4:15 AM 37.4 °F 30.8 °F 19.4 °F 48% 30.22 in 10.0 mi WNW 9.2 mph 16.1 mph N/A   Scattered Clouds
4:35 AM 35.6 °F 29.9 °F 19.4 °F 52% 30.22 in 10.0 mi WNW 6.9 mph - N/A   Clear
5:15 AM 35.6 °F 29.9 °F 19.4 °F 52% 30.23 in 10.0 mi WNW 6.9 mph - N/A   Clear
5:35 AM 35.6 °F 31.7 °F 19.4 °F 52% 30.23 in 10.0 mi West 4.6 mph - N/A   Clear
5:55 AM 35.6 °F 30.7 °F 19.4 °F 52% 30.23 in 10.0 mi WSW 5.8 mph - N/A   Clear
6:35 AM 39.2 °F 33.6 °F 21.2 °F 49% 30.22 in 10.0 mi West 8.1 mph - N/A   Clear
6:55 AM 39.2 °F 35.9 °F 21.2 °F 49% 30.23 in 10.0 mi NW 4.6 mph - N/A   Clear
7:15 AM 37.4 °F 33.8 °F 21.2 °F 52% 30.24 in 10.0 mi West 4.6 mph - N/A   Partly Cloudy
7:35 AM 35.6 °F 29.9 °F 19.4 °F 52% 30.26 in 10.0 mi East 6.9 mph - N/A   Scattered Clouds
8:15 AM 39.2 °F - 21.2 °F 49% 30.27 in 10.0 mi Calm Calm - N/A   Scattered Clouds
8:35 AM 44.6 °F 39.2 °F 24.8 °F 46% 30.26 in 10.0 mi WSW 10.4 mph 18.4 mph N/A   Mostly Cloudy
9:15 AM 46.4 °F 41.1 °F 23.0 °F 40% 30.26 in 10.0 mi WSW 11.5 mph 24.2 mph N/A   Overcast
9:35 AM 44.6 °F 36.9 °F 23.0 °F 43% 30.26 in 10.0 mi WSW 18.4 mph 26.5 mph N/A   Overcast
9:55 AM 44.6 °F 38.1 °F 24.8 °F 46% 30.26 in 10.0 mi West 13.8 mph 23.0 mph N/A   Overcast
10:35 AM 46.4 °F 40.1 °F 23.0 °F 40% 30.25 in 10.0 mi WSW 15.0 mph 28.8 mph N/A   Overcast
11:15 AM 48.2 °F - 24.8 °F 40% 30.23 in 10.0 mi WSW 15.0 mph 26.5 mph N/A   Overcast
11:35 AM 51.8 °F - 24.8 °F 35% 30.23 in 10.0 mi West 13.8 mph 26.5 mph N/A   Mostly Cloudy
11:55 AM 51.8 °F - 24.8 °F 35% 30.23 in 10.0 mi WNW 12.7 mph 21.9 mph N/A   Scattered Clouds
1:15 PM 53.6 °F - 24.8 °F 33% 30.21 in 10.0 mi NW 3.5 mph - N/A   Mostly Cloudy
1:35 PM 53.6 °F - 24.8 °F 33% 30.20 in 10.0 mi WSW 9.2 mph - N/A   Scattered Clouds
1:55 PM 55.4 °F - 26.6 °F 33% 30.19 in 10.0 mi WNW 10.4 mph 19.6 mph N/A   Clear
2:15 PM 55.4 °F - 24.8 °F 31% 30.19 in 10.0 mi West 12.7 mph 21.9 mph N/A   Clear
2:35 PM 55.4 °F - 24.8 °F 31% 30.20 in 10.0 mi WNW 13.8 mph 21.9 mph N/A   Clear
2:55 PM 53.6 °F - 24.8 °F 33% 30.21 in 10.0 mi WNW 12.7 mph 24.2 mph N/A   Clear
3:15 PM 53.6 °F - 26.6 °F 35% 30.22 in 10.0 mi WSW 12.7 mph 21.9 mph N/A   Clear
3:35 PM 50.0 °F - 24.8 °F 37% 30.22 in 10.0 mi West 13.8 mph 24.2 mph N/A   Clear
3:55 PM 48.2 °F - 24.8 °F 40% 30.23 in 10.0 mi West 15.0 mph 27.6 mph N/A   Clear
4:15 PM 51.8 °F - 26.6 °F 38% 30.22 in 10.0 mi West 15.0 mph 20.7 mph N/A   Mostly Cloudy
4:35 PM 51.8 °F - 24.8 °F 35% 30.23 in 10.0 mi WSW 15.0 mph 31.1 mph N/A   Overcast
4:55 PM 50.0 °F - 24.8 °F 37% 30.23 in 10.0 mi West 18.4 mph 39.1 mph N/A   Overcast
5:15 PM 48.2 °F - 24.8 °F 40% 30.23 in 10.0 mi WSW 15.0 mph 32.2 mph N/A   Mostly Cloudy
5:35 PM 48.2 °F - 24.8 °F 40% 30.23 in 10.0 mi West 13.8 mph 24.2 mph N/A   Mostly Cloudy
5:55 PM 46.4 °F 39.2 °F 24.8 °F 43% 30.23 in 10.0 mi West 18.4 mph 26.5 mph N/A   Partly Cloudy
6:15 PM 46.4 °F 39.0 °F 24.8 °F 43% 30.24 in 10.0 mi WSW 19.6 mph 25.3 mph N/A   Clear
6:35 PM 44.6 °F 37.4 °F 24.8 °F 46% 30.24 in 10.0 mi West 16.1 mph 25.3 mph N/A   Clear
6:55 PM 44.6 °F 37.4 °F 24.8 °F 46% 30.25 in 10.0 mi West 16.1 mph 25.3 mph N/A   Partly Cloudy
7:15 PM 46.4 °F 39.8 °F 24.8 °F 43% 30.24 in 10.0 mi WSW 16.1 mph 33.4 mph N/A   Partly Cloudy
7:35 PM 44.6 °F 37.4 °F 24.8 °F 46% 30.25 in 10.0 mi West 16.1 mph 28.8 mph N/A   Clear
8:15 PM 44.6 °F 38.1 °F 24.8 °F 46% 30.25 in 10.0 mi West 13.8 mph 21.9 mph N/A   Clear
8:35 PM 44.6 °F 38.4 °F 24.8 °F 46% 30.25 in 10.0 mi West 12.7 mph 21.9 mph N/A   Clear
8:55 PM 44.6 °F 37.8 °F 24.8 °F 46% 30.25 in 10.0 mi West 15.0 mph 20.7 mph N/A   Partly Cloudy
9:15 PM 46.4 °F 40.4 °F 24.8 °F 43% 30.26 in 10.0 mi West 13.8 mph 26.5 mph N/A   Scattered Clouds
9:35 PM 46.4 °F 38.3 °F 24.8 °F 43% 30.25 in 10.0 mi WSW 23.0 mph 31.1 mph N/A   Scattered Clouds
9:55 PM 46.4 °F 38.3 °F 24.8 °F 43% 30.25 in 10.0 mi West 23.0 mph 31.1 mph N/A   Partly Cloudy
10:15 PM 46.4 °F 39.2 °F 24.8 °F 43% 30.25 in 10.0 mi West 18.4 mph 31.1 mph N/A   Partly Cloudy
10:35 PM 46.4 °F 38.5 °F 24.8 °F 43% 30.25 in 10.0 mi West 21.9 mph 31.1 mph N/A   Clear
10:55 PM 44.6 °F 35.5 °F 24.8 °F 46% 30.24 in 10.0 mi West 25.3 mph 32.2 mph N/A   Clear
11:15 PM 44.6 °F 36.1 °F 24.8 °F 46% 30.24 in 10.0 mi West 21.9 mph 29.9 mph N/A   Clear
11:35 PM 44.6 °F 36.6 °F 24.8 °F 46% 30.24 in 10.0 mi West 19.6 mph 32.2 mph N/A   Clear
11:55 PM 44.6 °F 35.9 °F 24.8 °F 46% 30.23 in 10.0 mi West 23.0 mph 31.1 mph N/A   Clear